Time,TemperatureF,DewpointF,PressureIn,WindDirection,WindDirectionDegrees,WindSpeedMPH,WindSpeedGustMPH,Humidity,HourlyPrecipIn,Conditions,Clouds,dailyrainin,SoftwareType,DateUTC
2013-01-23 00:07:00,17.3,2.0,30.39,SW,222,0.0,3.0,51,0.00,,,0.00,weatherlink.com 1.10,2013-01-23 05:07:00,
2013-01-23 00:22:00,17.2,1.0,30.39,West,259,1.0,4.0,50,0.00,,,0.00,weatherlink.com 1.10,2013-01-23 05:22:00,
2013-01-23 00:37:00,17.0,2.0,30.39,SW,234,0.0,3.0,51,0.00,,,0.00,weatherlink.com 1.10,2013-01-23 05:37:00,
2013-01-23 00:52:00,16.8,2.0,30.39,South,169,0.0,3.0,52,0.00,,,0.00,weatherlink.com 1.10,2013-01-23 05:52:00,
2013-01-23 01:07:00,16.7,2.0,30.39,NE,44,1.0,2.0,53,0.00,,,0.00,weatherlink.com 1.10,2013-01-23 06:07:00,
2013-01-23 01:22:00,16.8,2.0,30.39,West,265,1.0,2.0,52,0.00,,,0.00,weatherlink.com 1.10,2013-01-23 06:22:00,
2013-01-23 01:37:00,16.8,2.0,30.39,SSW,211,1.0,4.0,53,0.00,,,0.00,weatherlink.com 1.10,2013-01-23 06:37:00,
2013-01-23 01:52:00,17.0,2.0,30.39,NE,54,1.0,2.0,53,0.00,,,0.00,weatherlink.com 1.10,2013-01-23 06:52:00,
2013-01-23 02:07:00,17.0,2.0,30.39,SSW,209,2.0,5.0,53,0.00,,,0.00,weatherlink.com 1.10,2013-01-23 07:07:00,
2013-01-23 02:22:00,17.0,3.0,30.39,North,5,0.0,2.0,54,0.00,,,0.00,weatherlink.com 1.10,2013-01-23 07:22:00,
2013-01-23 02:37:00,16.6,3.0,30.39,West,268,0.0,2.0,55,0.00,,,0.00,weatherlink.com 1.10,2013-01-23 07:37:00,
2013-01-23 02:52:00,16.4,3.0,30.40,West,268,0.0,1.0,56,0.00,,,0.00,weatherlink.com 1.10,2013-01-23 07:52:00,
2013-01-23 03:07:00,16.4,3.0,30.40,West,268,0.0,1.0,57,0.00,,,0.00,weatherlink.com 1.10,2013-01-23 08:07:00,
2013-01-23 03:23:00,16.6,3.0,30.41,WSW,243,2.0,2.0,55,0.00,,,0.00,weatherlink.com 1.10,2013-01-23 08:23:00,
2013-01-23 03:38:00,16.6,3.0,30.40,WNW,284,1.0,2.0,54,0.00,,,0.00,weatherlink.com 1.10,2013-01-23 08:38:00,
2013-01-23 03:53:00,16.3,2.0,30.40,North,5,0.0,3.0,53,0.00,,,0.00,weatherlink.com 1.10,2013-01-23 08:53:00,
2013-01-23 04:08:00,16.2,2.0,30.39,NNW,337,0.0,1.0,54,0.00,,,0.00,weatherlink.com 1.10,2013-01-23 09:08:00,
2013-01-23 04:23:00,15.9,2.0,30.38,WSW,254,0.0,1.0,54,0.00,,,0.00,weatherlink.com 1.10,2013-01-23 09:23:00,
2013-01-23 04:38:00,15.5,2.0,30.38,West,279,0.0,2.0,55,0.00,,,0.00,weatherlink.com 1.10,2013-01-23 09:38:00,
2013-01-23 04:53:00,15.2,2.0,30.38,West,279,0.0,0.0,57,0.00,,,0.00,weatherlink.com 1.10,2013-01-23 09:53:00,
2013-01-23 05:08:00,14.9,2.0,30.38,West,279,0.0,0.0,58,0.00,,,0.00,weatherlink.com 1.10,2013-01-23 10:08:00,
2013-01-23 05:23:00,14.8,2.0,30.38,South,190,0.0,1.0,58,0.00,,,0.00,weatherlink.com 1.10,2013-01-23 10:23:00,
2013-01-23 05:38:00,14.7,2.0,30.38,WSW,244,0.0,2.0,58,0.00,,,0.00,weatherlink.com 1.10,2013-01-23 10:38:00,
2013-01-23 05:53:00,14.6,3.0,30.38,SW,227,2.0,2.0,59,0.00,,,0.00,weatherlink.com 1.10,2013-01-23 10:53:00,
2013-01-23 06:08:00,14.5,3.0,30.38,SW,227,0.0,0.0,61,0.00,,,0.00,weatherlink.com 1.10,2013-01-23 11:08:00,
2013-01-23 06:23:00,14.5,4.0,30.39,SW,227,0.0,1.0,63,0.00,,,0.00,weatherlink.com 1.10,2013-01-23 11:23:00,
2013-01-23 06:39:00,14.5,5.0,30.39,SW,227,0.0,1.0,65,0.00,,,0.00,weatherlink.com 1.10,2013-01-23 11:39:00,
2013-01-23 06:54:00,14.6,4.0,30.39,SW,227,1.0,2.0,64,0.00,,,0.00,weatherlink.com 1.10,2013-01-23 11:54:00,
2013-01-23 07:09:00,14.8,5.0,30.39,SSW,212,0.0,3.0,66,0.00,,,0.00,weatherlink.com 1.10,2013-01-23 12:09:00,
2013-01-23 07:24:00,14.9,5.0,30.39,SSW,212,0.0,2.0,66,0.00,,,0.00,weatherlink.com 1.10,2013-01-23 12:24:00,
2013-01-23 07:39:00,15.1,5.0,30.39,SW,222,0.0,3.0,65,0.00,,,0.00,weatherlink.com 1.10,2013-01-23 12:39:00,
2013-01-23 07:54:00,15.2,5.0,30.38,South,186,0.0,2.0,64,0.00,,,0.00,weatherlink.com 1.10,2013-01-23 12:54:00,
2013-01-23 08:09:00,15.5,5.0,30.39,SSW,210,0.0,2.0,64,0.00,,,0.00,weatherlink.com 1.10,2013-01-23 13:09:00,
2013-01-23 08:24:00,15.7,5.0,30.39,SW,215,1.0,2.0,63,0.00,,,0.00,weatherlink.com 1.10,2013-01-23 13:24:00,
2013-01-23 08:39:00,16.1,5.0,30.39,SW,214,0.0,2.0,62,0.00,,,0.00,weatherlink.com 1.10,2013-01-23 13:39:00,
2013-01-23 08:54:00,16.3,5.0,30.38,SSW,210,2.0,4.0,61,0.00,,,0.00,weatherlink.com 1.10,2013-01-23 13:54:00,
2013-01-23 09:09:00,16.2,4.0,30.39,SSW,211,2.0,4.0,60,0.00,,,0.00,weatherlink.com 1.10,2013-01-23 14:09:00,
2013-01-23 09:24:00,16.6,5.0,30.39,SSW,208,0.0,4.0,60,0.00,,,0.00,weatherlink.com 1.10,2013-01-23 14:24:00,
2013-01-23 09:39:00,16.8,5.0,30.39,SW,215,1.0,5.0,59,0.00,,,0.00,weatherlink.com 1.10,2013-01-23 14:39:00,
2013-01-23 09:54:00,17.2,5.0,30.39,SW,219,2.0,5.0,59,0.00,,,0.00,weatherlink.com 1.10,2013-01-23 14:54:00,
2013-01-23 10:10:00,17.7,5.0,30.39,SSW,212,2.0,6.0,57,0.00,,,0.00,weatherlink.com 1.10,2013-01-23 15:10:00,
2013-01-23 10:25:00,18.1,5.0,30.38,SW,219,4.0,4.0,56,0.00,,,0.00,weatherlink.com 1.10,2013-01-23 15:25:00,
2013-01-23 10:40:00,18.3,5.0,30.39,SW,229,3.0,7.0,56,0.00,,,0.00,weatherlink.com 1.10,2013-01-23 15:40:00,
2013-01-23 10:55:00,18.6,5.0,30.38,SSW,211,3.0,5.0,56,0.00,,,0.00,weatherlink.com 1.10,2013-01-23 15:55:00,
2013-01-23 11:10:00,18.7,4.0,30.37,SW,215,4.0,5.0,54,0.00,,,0.00,weatherlink.com 1.10,2013-01-23 16:10:00,
2013-01-23 11:25:00,18.9,5.0,30.36,SSE,148,1.0,5.0,56,0.00,,,0.00,weatherlink.com 1.10,2013-01-23 16:25:00,
2013-01-23 11:40:00,19.4,4.0,30.36,SW,231,2.0,5.0,52,0.00,,,0.00,weatherlink.com 1.10,2013-01-23 16:40:00,
2013-01-23 11:55:00,19.5,3.0,30.36,SSW,197,0.0,5.0,49,0.00,,,0.00,weatherlink.com 1.10,2013-01-23 16:55:00,
2013-01-23 12:10:00,19.7,3.0,30.35,SW,214,2.0,7.0,49,0.00,,,0.00,weatherlink.com 1.10,2013-01-23 17:10:00,
2013-01-23 12:25:00,19.8,3.0,30.34,SE,143,4.0,5.0,48,0.00,,,0.00,weatherlink.com 1.10,2013-01-23 17:25:00,
2013-01-23 12:40:00,19.8,3.0,30.33,SSW,202,2.0,7.0,49,0.00,,,0.00,weatherlink.com 1.10,2013-01-23 17:40:00,
2013-01-23 12:55:00,20.0,5.0,30.31,SW,215,1.0,6.0,52,0.00,,,0.00,weatherlink.com 1.10,2013-01-23 17:55:00,
2013-01-23 13:10:00,20.2,5.0,30.31,SW,219,3.0,8.0,51,0.00,,,0.00,weatherlink.com 1.10,2013-01-23 18:10:00,
2013-01-23 13:25:00,20.6,5.0,30.29,SW,215,2.0,7.0,52,0.00,,,0.00,weatherlink.com 1.10,2013-01-23 18:25:00,
2013-01-23 13:40:00,21.2,6.0,30.29,SSW,207,3.0,7.0,52,0.00,,,0.00,weatherlink.com 1.10,2013-01-23 18:40:00,
2013-01-23 13:55:00,21.3,7.0,30.28,SW,221,5.0,5.0,54,0.00,,,0.00,weatherlink.com 1.10,2013-01-23 18:55:00,
2013-01-23 14:11:00,20.8,8.0,30.27,SW,221,2.0,5.0,57,0.00,,,0.00,weatherlink.com 1.10,2013-01-23 19:11:00,
2013-01-23 14:26:00,20.9,8.0,30.26,South,169,0.0,4.0,57,0.00,,,0.00,weatherlink.com 1.10,2013-01-23 19:26:00,
2013-01-23 14:41:00,21.1,7.0,30.26,SSW,202,0.0,4.0,55,0.00,,,0.00,weatherlink.com 1.10,2013-01-23 19:41:00,
2013-01-23 14:56:00,21.5,6.0,30.25,SSW,206,2.0,5.0,52,0.00,,,0.00,weatherlink.com 1.10,2013-01-23 19:56:00,
2013-01-23 15:11:00,21.8,6.0,30.24,SSW,213,0.0,3.0,51,0.00,,,0.00,weatherlink.com 1.10,2013-01-23 20:11:00,
2013-01-23 15:26:00,22.0,6.0,30.24,SSW,205,1.0,4.0,50,0.00,,,0.00,weatherlink.com 1.10,2013-01-23 20:26:00,
2013-01-23 15:41:00,22.3,6.0,30.23,SW,220,2.0,3.0,49,0.00,,,0.00,weatherlink.com 1.10,2013-01-23 20:41:00,
2013-01-23 15:56:00,22.5,6.0,30.22,SSW,203,1.0,4.0,49,0.00,,,0.00,weatherlink.com 1.10,2013-01-23 20:56:00,
2013-01-23 16:11:00,22.5,7.0,30.22,SSW,202,1.0,3.0,51,0.00,,,0.00,weatherlink.com 1.10,2013-01-23 21:11:00,
2013-01-23 16:26:00,22.7,7.0,30.21,SW,215,0.0,3.0,51,0.00,,,0.00,weatherlink.com 1.10,2013-01-23 21:26:00,
2013-01-23 16:41:00,22.8,7.0,30.21,SW,215,0.0,1.0,51,0.00,,,0.00,weatherlink.com 1.10,2013-01-23 21:41:00,
2013-01-23 16:56:00,22.9,7.0,30.20,SW,215,0.0,1.0,51,0.00,,,0.00,weatherlink.com 1.10,2013-01-23 21:56:00,
2013-01-23 17:11:00,22.9,7.0,30.19,SW,215,0.0,1.0,51,0.00,,,0.00,weatherlink.com 1.10,2013-01-23 22:11:00,
2013-01-23 17:26:00,23.0,8.0,30.18,SW,215,0.0,1.0,52,0.00,,,0.00,weatherlink.com 1.10,2013-01-23 22:26:00,
2013-01-23 17:41:00,23.0,8.0,30.18,SW,215,0.0,1.0,52,0.00,,,0.00,weatherlink.com 1.10,2013-01-23 22:41:00,
2013-01-23 17:56:00,23.0,8.0,30.18,SW,215,0.0,0.0,52,0.00,,,0.00,weatherlink.com 1.10,2013-01-23 22:56:00,
2013-01-23 18:11:00,23.0,8.0,30.18,SW,215,0.0,0.0,54,0.00,,,0.00,weatherlink.com 1.10,2013-01-23 23:11:00,
2013-01-23 18:26:00,23.1,8.0,30.17,SW,215,0.0,0.0,53,0.00,,,0.00,weatherlink.com 1.10,2013-01-23 23:26:00,
2013-01-23 18:41:00,23.1,8.0,30.17,SW,231,0.0,1.0,53,0.00,,,0.00,weatherlink.com 1.10,2013-01-23 23:41:00,
2013-01-23 18:56:00,23.1,9.0,30.16,SW,231,0.0,0.0,54,0.00,,,0.00,weatherlink.com 1.10,2013-01-23 23:56:00,
2013-01-23 19:11:00,23.1,9.0,30.17,SW,231,0.0,0.0,54,0.00,,,0.00,weatherlink.com 1.10,2013-01-24 00:11:00,
2013-01-23 19:26:00,23.1,9.0,30.16,SW,232,0.0,1.0,54,0.00,,,0.00,weatherlink.com 1.10,2013-01-24 00:26:00,
2013-01-23 19:41:00,23.1,9.0,30.16,SW,232,0.0,1.0,54,0.00,,,0.00,weatherlink.com 1.10,2013-01-24 00:41:00,
2013-01-23 19:56:00,23.1,9.0,30.16,SW,232,0.0,0.0,54,0.00,,,0.00,weatherlink.com 1.10,2013-01-24 00:56:00,
2013-01-23 20:11:00,23.0,9.0,30.16,SW,232,0.0,0.0,55,0.00,,,0.00,weatherlink.com 1.10,2013-01-24 01:11:00,
2013-01-23 20:26:00,23.0,9.0,30.15,SW,234,0.0,2.0,56,0.00,,,0.00,weatherlink.com 1.10,2013-01-24 01:26:00,
2013-01-23 20:41:00,22.9,9.0,30.15,SW,234,0.0,0.0,55,0.00,,,0.00,weatherlink.com 1.10,2013-01-24 01:41:00,
2013-01-23 20:56:00,22.8,9.0,30.15,SW,234,0.0,0.0,56,0.00,,,0.00,weatherlink.com 1.10,2013-01-24 01:56:00,
2013-01-23 21:11:00,22.7,9.0,30.15,SW,234,0.0,0.0,56,0.00,,,0.00,weatherlink.com 1.10,2013-01-24 02:11:00,
2013-01-23 21:26:00,22.7,9.0,30.15,SW,234,0.0,0.0,57,0.00,,,0.00,weatherlink.com 1.10,2013-01-24 02:26:00,
2013-01-23 21:41:00,22.7,9.0,30.15,SW,234,0.0,1.0,56,0.00,,,0.00,weatherlink.com 1.10,2013-01-24 02:41:00,
2013-01-23 21:56:00,22.7,9.0,30.15,SW,234,0.0,0.0,57,0.00,,,0.00,weatherlink.com 1.10,2013-01-24 02:56:00,
2013-01-23 22:11:00,22.7,9.0,30.16,SW,234,0.0,1.0,56,0.00,,,0.00,weatherlink.com 1.10,2013-01-24 03:11:00,
2013-01-23 22:26:00,22.7,9.0,30.15,SW,234,0.0,1.0,57,0.00,,,0.00,weatherlink.com 1.10,2013-01-24 03:26:00,
2013-01-23 22:41:00,22.5,9.0,30.15,SW,234,0.0,0.0,57,0.00,,,0.00,weatherlink.com 1.10,2013-01-24 03:41:00,
2013-01-23 22:56:00,22.2,9.0,30.14,SW,234,0.0,0.0,58,0.00,,,0.00,weatherlink.com 1.10,2013-01-24 03:56:00,
2013-01-23 23:11:00,22.0,10.0,30.14,WSW,237,0.0,0.0,60,0.00,,,0.00,weatherlink.com 1.10,2013-01-24 04:11:00,
2013-01-23 23:26:00,22.1,10.0,30.14,WSW,237,0.0,1.0,61,0.00,,,0.00,weatherlink.com 1.10,2013-01-24 04:26:00,
2013-01-23 23:41:00,22.4,10.0,30.14,WSW,237,1.0,2.0,59,0.00,,,0.00,weatherlink.com 1.10,2013-01-24 04:41:00,
2013-01-23 23:56:00,22.6,11.0,30.14,SSW,205,1.0,2.0,60,0.00,,,0.00,weatherlink.com 1.10,2013-01-24 04:56:00,